Weather History for Dallas Redbird, TX

Change the Weather History Date:

Wednesday, November 6, 2013

  Actual Average Record
Temperature  
Mean Temperature 58 °F -  
Max Temperature 72 °F 65 °F 80 °F (2004)
Min Temperature 45 °F 48 °F 36 °F (2010)
Degree Days  
Heating Degree Days 6    
Growing Degree Days 8 (Base 50)    
Moisture  
Dew Point 49 °F    
Average Humidity 78    
Maximum Humidity 94    
Minimum Humidity 53    
Precipitation  
Precipitation 0.11 in - - ()
Sea Level Pressure  
Sea Level Pressure 30.16 in    
Wind  
Wind Speed 11 mph (NNW)    
Max Wind Speed 22 mph    
Max Gust Speed 28 mph    
Visibility 9 miles    
Events Rain    
Averages and records for this station are not official NWS values.
T = Trace of Precipitation, MM = Missing Value Source: NWS Daily Summary

Daily Weather History Graph

Daily Weather History Graph

Search for Another Location

Airport:

Trip Planner

Search our weather history database for the weather conditions in past years. The results will help you decide how hot, cold, wet, or windy it might be!

Date:

Astronomy

Nov. 06, 2013 Rise Set
Actual Time 6:49 AM CST 5:32 PM CST
Civil Twilight 6:23 AM CST 5:57 PM CST
Nautical Twilight 5:54 AM CST 6:27 PM CST
Astronomical Twilight 5:25 AM CST 6:56 PM CST
Moon 10:01 AM CST (11/6) 8:41 PM CST (11/6)
Length of Visible Light 11h 33m
Length of Day
10h 42m
Waxing Crescent, 14% of the Moon is Illuminated
Nov 6
Waxing Crescent
Nov 9
First Quarter
Nov 17
Full
Nov 25
Last Quarter
Dec 2
New

Hourly Weather History & Observations

Time (CST) Temp. Windchill Dew Point Humidity Pressure Visibility Wind Dir Wind Speed Gust Speed Precip Events Conditions
12:53 AM 71.1 °F - 66.9 °F 87% 29.96 in 10.0 mi South 8.1 mph - N/A   Overcast
1:53 AM 71.1 °F - 68.0 °F 90% 29.95 in 10.0 mi Variable 4.6 mph - N/A   Overcast
2:53 AM 72.0 °F - 68.0 °F 87% 29.96 in 10.0 mi Variable 3.5 mph - N/A   Overcast
3:41 AM 71.6 °F - 68.0 °F 88% 29.97 in 10.0 mi Variable 3.5 mph - N/A   Overcast
3:53 AM 72.0 °F - 68.0 °F 87% 29.96 in 10.0 mi South 5.8 mph - N/A   Overcast
4:07 AM 71.6 °F - 68.0 °F 88% 29.98 in 10.0 mi Variable 4.6 mph - N/A   Overcast
4:49 AM 64.4 °F - 60.8 °F 88% 30.02 in 5.0 mi NW 16.1 mph - 0.08 in Rain Light Rain
4:53 AM 62.1 °F - 59.0 °F 90% 30.01 in 5.0 mi NW 17.3 mph 25.3 mph 0.09 in Rain Light Rain
5:53 AM 57.0 °F - 54.0 °F 89% 30.04 in 10.0 mi NW 12.7 mph 21.9 mph 0.02 in   Overcast
6:08 AM 55.4 °F - 53.6 °F 94% 30.06 in 10.0 mi NNW 16.1 mph - N/A   Overcast
6:20 AM 55.4 °F - 51.8 °F 88% 30.07 in 10.0 mi NNW 17.3 mph 21.9 mph N/A   Overcast
6:53 AM 53.1 °F - 50.0 °F 89% 30.08 in 10.0 mi NW 18.4 mph 25.3 mph N/A   Overcast
7:49 AM 51.8 °F - 48.2 °F 88% 30.13 in 10.0 mi NNW 17.3 mph 25.3 mph N/A   Overcast
7:53 AM 52.0 °F - 48.0 °F 86% 30.12 in 10.0 mi NNW 19.6 mph 25.3 mph N/A   Overcast
8:28 AM 51.8 °F - 46.4 °F 82% 30.15 in 10.0 mi NW 21.9 mph 26.5 mph N/A   Overcast
8:53 AM 51.1 °F - 46.9 °F 86% 30.16 in 10.0 mi NNW 16.1 mph 23.0 mph N/A   Overcast
9:12 AM 51.8 °F - 46.4 °F 82% 30.17 in 10.0 mi NW 19.6 mph 27.6 mph N/A   Overcast
9:53 AM 51.1 °F - 46.0 °F 83% 30.19 in 10.0 mi NW 17.3 mph 24.2 mph N/A   Overcast
10:53 AM 55.0 °F - 45.0 °F 69% 30.21 in 10.0 mi North 15.0 mph - N/A   Mostly Cloudy
11:21 AM 51.8 °F - 44.6 °F 76% 30.23 in 2.0 mi NW 18.4 mph 21.9 mph N/A   Haze
11:44 AM 51.8 °F - 42.8 °F 71% 30.24 in 10.0 mi NNW 16.1 mph - N/A   Overcast
11:53 AM 52.0 °F - 43.0 °F 71% 30.24 in 10.0 mi NNW 15.0 mph 23.0 mph N/A   Overcast
12:15 PM 53.6 °F - 42.8 °F 67% 30.24 in 1.8 mi NNW 12.7 mph 19.6 mph N/A   Haze
12:23 PM 53.6 °F - 42.8 °F 67% 30.23 in 4.0 mi NNW 13.8 mph 19.6 mph N/A   Haze
12:53 PM 53.1 °F - 42.1 °F 66% 30.21 in 10.0 mi North 18.4 mph 25.3 mph N/A   Clear
1:53 PM 54.0 °F - 43.0 °F 66% 30.22 in 10.0 mi NW 15.0 mph 20.7 mph N/A   Clear
2:53 PM 55.0 °F - 41.0 °F 59% 30.24 in 10.0 mi NNW 13.8 mph - N/A   Clear
3:53 PM 57.0 °F - 41.0 °F 55% 30.23 in 10.0 mi North 10.4 mph - N/A   Clear
4:53 PM 57.0 °F - 39.9 °F 53% 30.24 in 10.0 mi NNW 11.5 mph - N/A   Clear
5:53 PM 53.1 °F - 39.9 °F 61% 30.26 in 10.0 mi NNW 5.8 mph - N/A   Clear
6:53 PM 50.0 °F - 39.9 °F 68% 30.29 in 10.0 mi NNW 5.8 mph - N/A   Clear
7:53 PM 46.9 °F - 39.0 °F 74% 30.31 in 10.0 mi NW 8.1 mph - N/A   Clear
8:53 PM 48.0 °F - 39.9 °F 74% 30.33 in 10.0 mi North 6.9 mph - N/A   Clear
9:53 PM 46.9 °F - 39.0 °F 74% 30.35 in 10.0 mi North 6.9 mph - N/A   Clear
10:53 PM 45.0 °F 41.2 °F 37.9 °F 76% 30.36 in 10.0 mi NNW 6.9 mph - N/A   Clear
11:53 PM 46.0 °F 43.9 °F 37.9 °F 73% 30.37 in 10.0 mi North 4.6 mph - N/A   Clear